Date,TemperatureHighF,TemperatureAvgF,TemperatureLowF,DewpointHighF,DewpointAvgF,DewpointLowF,HumidityHigh,HumidityAvg,HumidityLow,PressureMaxIn,PressureMinIn,WindSpeedMaxMPH,WindSpeedAvgMPH,GustSpeedMaxMPH,PrecipitationSumIn
2013-1-1,55.8,49.7,44.2,53.0,46.3,39.0,91,88,81,30.21,29.98,11,2,15,0.05
2013-1-2,44.2,40.1,36.7,40.0,35.3,33.0,89,83,78,30.32,30.20,10,2,12,0.01
2013-1-3,52.6,41.2,29.8,39.0,33.6,28.0,91,76,46,30.43,30.31,8,1,10,0.05
2013-1-4,49.5,44.1,40.8,41.0,38.3,34.0,90,80,64,30.53,30.36,2,0,6,0.01
2013-1-5,46.1,43.8,41.0,43.0,41.2,39.0,91,90,86,30.39,30.27,2,0,6,0.02
2013-1-6,58.3,44.0,34.9,44.0,35.4,-99.9,91,80,50,30.37,0.00,5,-31,12,0.01
2013-1-7,56.5,42.0,29.6,43.0,36.4,27.0,91,82,50,30.35,30.13,4,0,7,0.06
2013-1-8,59.1,53.1,44.5,56.0,50.2,42.0,91,90,86,30.14,29.97,5,0,13,0.02
2013-1-9,64.2,61.7,58.5,61.0,58.5,56.0,92,89,87,30.10,29.94,4,0,13,0.06
2013-1-10,69.3,60.7,49.3,61.0,56.1,47.0,91,85,61,30.07,29.95,6,0,8,0.10
2013-1-11,70.6,56.4,42.1,61.0,50.9,39.0,91,82,55,30.04,29.89,4,0,5,0.04
2013-1-12,74.4,69.2,63.3,69.0,65.5,60.0,90,88,82,29.91,29.74,6,0,10,2.12
2013-1-13,69.0,43.8,38.9,65.0,40.0,36.0,91,86,78,30.17,29.75,12,3,18,0.46
2013-1-14,43.4,37.9,34.7,39.0,34.3,32.0,91,87,79,30.27,30.12,9,1,18,0.21
2013-1-15,35.7,33.5,32.2,33.0,31.1,30.0,92,91,87,30.17,30.06,8,2,12,0.20
2013-1-16,49.0,39.1,33.6,35.0,30.4,23.0,92,74,39,30.25,30.14,9,2,12,0.00
2013-1-17,60.7,42.3,28.9,41.0,32.4,26.0,91,72,39,30.48,30.24,8,1,17,0.00
2013-1-18,59.9,42.4,30.1,43.0,33.6,20.0,91,75,23,30.55,30.37,4,0,5,0.00
2013-1-19,62.7,45.5,31.4,47.0,37.4,29.0,91,76,40,30.37,30.21,3,0,6,0.01
2013-1-20,67.5,47.9,34.9,54.0,42.0,33.0,91,82,49,30.28,30.13,4,0,5,0.00
2013-1-21,69.4,51.7,37.9,54.0,45.6,35.0,91,81,54,30.23,30.14,2,0,5,0.00
2013-1-22,68.1,49.8,38.4,51.0,42.1,33.0,90,77,51,30.35,30.23,3,0,6,0.00
2013-1-23,75.0,58.1,43.4,58.0,50.5,41.0,91,78,45,30.35,30.21,3,0,8,0.00
2013-1-24,68.8,62.1,52.8,62.0,58.2,50.0,90,87,79,30.28,30.14,3,0,7,0.00
2013-1-25,77.8,66.2,62.0,61.0,59.4,58.0,90,80,53,30.19,30.08,5,0,9,0.00
2013-1-26,73.3,61.7,53.3,60.0,56.1,51.0,91,82,61,30.17,30.11,1,0,4,0.00
2013-1-27,74.7,63.8,49.9,63.0,57.8,47.0,91,81,63,30.16,30.05,4,0,9,0.00
2013-1-28,77.0,69.5,64.7,66.0,63.6,62.0,90,82,63,30.13,29.99,4,0,6,0.00
2013-1-29,74.2,69.0,56.7,69.0,64.9,54.0,90,87,70,29.98,29.59,17,1,21,0.36
2013-1-31,65.6,47.3,31.2,39.0,31.2,25.0,91,61,22,30.29,30.18,4,0,9,0.00
2013-2-1,68.0,53.5,41.6,44.0,40.4,35.0,87,64,36,30.38,30.23,3,0,7,0.00
2013-2-2,72.9,57.9,47.1,54.0,48.6,43.0,88,73,47,30.28,30.16,11,0,13,0.00
2013-2-3,69.5,52.3,37.2,46.0,39.3,31.0,91,67,25,30.32,30.08,4,0,6,0.00
2013-2-4,62.1,53.8,45.1,59.0,50.5,41.0,90,88,86,30.08,29.87,2,0,4,0.05
2013-2-5,74.0,61.8,55.0,64.0,56.5,52.0,89,83,61,30.03,29.90,3,0,8,0.01
2013-2-6,64.3,60.0,55.6,61.0,57.0,53.0,92,89,86,30.08,29.93,1,0,8,0.05
2013-2-7,65.9,59.4,54.3,59.0,55.4,51.0,90,86,78,29.99,29.90,2,0,4,0.00
2013-2-8,60.7,56.4,46.5,54.0,50.7,44.0,91,82,69,30.19,29.97,10,1,14,0.00
2013-2-9,62.7,54.1,44.6,60.0,50.0,42.0,91,86,75,30.18,29.92,5,0,8,0.00
2013-2-10,68.4,63.4,56.3,65.0,58.9,53.0,91,85,63,29.99,29.78,7,0,16,0.86
2013-2-11,57.8,53.0,50.8,55.0,49.6,48.0,91,88,74,30.13,30.00,4,0,9,0.21
2013-2-12,55.2,52.9,50.2,53.0,50.1,46.0,91,89,84,30.04,29.82,7,1,14,1.04
2013-2-13,55.6,47.0,35.6,46.0,40.1,33.0,91,78,57,30.12,29.93,10,2,17,0.00
2013-2-14,64.3,45.7,32.0,50.0,37.4,30.0,91,77,36,30.15,30.06,3,0,6,0.01
2013-2-15,61.6,46.5,34.9,42.0,36.6,29.0,91,71,41,30.32,30.11,16,2,17,0.00
2013-2-16,55.8,42.7,30.4,35.0,27.6,22.0,88,59,30,30.41,30.24,13,2,19,0.00
2013-2-17,71.1,51.9,33.4,47.0,38.6,31.0,91,65,32,30.25,30.07,6,0,10,0.00
2013-2-18,69.4,60.5,54.0,62.0,54.5,43.0,91,81,65,30.07,29.84,16,1,23,0.28
2013-2-19,65.2,50.3,37.3,45.0,36.3,26.0,91,65,24,30.28,30.07,6,1,10,0.00
2013-2-20,54.9,51.5,46.4,42.0,35.8,30.0,83,56,42,30.20,29.88,4,0,14,0.00
2013-2-21,72.2,59.4,47.4,65.0,51.7,40.0,90,77,47,29.88,29.64,7,1,21,0.43
2013-2-22,55.1,49.9,44.9,47.0,45.2,42.0,91,84,73,30.04,29.87,6,1,9,0.00
2013-2-23,67.8,51.8,39.7,48.0,42.8,37.0,89,74,39,30.03,29.91,4,0,9,0.00
2013-2-24,70.2,54.3,37.4,50.0,43.8,35.0,91,71,40,29.98,29.70,6,0,8,0.00
2013-2-25,73.3,59.9,46.4,63.0,45.8,28.0,90,64,24,29.70,29.44,18,2,18,0.02
2013-2-26,60.2,49.5,42.2,41.0,35.3,32.0,87,60,41,29.93,29.65,14,3,25,0.00
2013-2-27,65.1,49.8,36.2,47.0,35.3,27.0,91,62,31,30.14,29.91,17,2,18,0.00
2013-2-28,57.7,45.2,35.6,36.0,29.6,26.0,81,57,31,30.26,30.12,11,2,19,0.00
2013-3-1,59.5,46.1,33.6,33.0,29.4,25.0,89,55,28,30.26,30.13,17,3,23,0.00
2013-3-2,50.9,39.9,31.0,33.0,26.0,21.0,83,60,33,30.35,30.21,15,3,19,0.00
2013-3-3,66.8,47.6,28.3,42.0,32.0,25.0,90,60,30,30.28,30.01,5,1,8,0.00
2013-3-4,79.3,63.7,50.2,60.0,53.3,42.0,89,71,43,30.01,29.73,8,1,15,0.00
2013-3-5,66.1,58.8,39.2,60.0,39.6,25.0,88,53,24,30.32,29.78,16,4,29,0.00
2013-3-6,38.6,35.9,33.4,31.0,28.4,27.0,80,74,67,30.36,30.30,0,0,3,0.00
2013-3-7,66.6,51.3,35.3,41.0,35.3,30.0,89,60,28,30.32,30.18,5,0,7,0.00
2013-3-8,73.0,57.4,42.0,55.0,47.0,38.0,90,70,48,30.26,30.10,5,0,9,0.00
2013-3-9,73.6,63.8,57.1,62.0,56.9,49.0,90,79,63,30.10,29.82,6,1,11,0.02
2013-3-10,64.5,58.0,45.8,62.0,51.7,36.0,91,80,52,30.04,29.72,9,2,26,1.05
2013-3-11,58.9,47.6,38.0,36.0,32.3,27.0,83,58,32,30.11,29.98,9,2,16,0.00
2013-3-12,70.4,49.0,31.9,43.0,33.8,29.0,91,64,22,30.27,30.08,4,0,9,0.00
2013-3-13,70.5,52.6,38.2,42.0,36.1,28.0,89,61,22,30.45,30.28,8,0,9,0.00
2013-3-14,76.8,55.8,38.0,49.0,41.5,35.0,90,64,31,30.42,30.25,6,0,6,0.00
2013-3-15,81.0,64.6,45.5,54.0,48.3,43.0,90,60,31,30.26,30.03,7,1,11,0.00
2013-3-16,81.4,67.8,57.5,59.0,56.0,54.0,90,69,39,30.04,29.82,6,1,13,0.00
2013-3-17,81.8,69.2,59.5,65.0,60.6,56.0,90,76,48,29.88,29.69,5,0,15,0.00
2013-3-18,85.2,72.8,64.1,67.0,61.9,53.0,90,71,45,29.95,29.74,8,1,11,0.00
2013-3-19,76.7,64.6,52.5,54.0,47.0,40.0,79,55,37,30.06,29.94,6,1,13,0.00
2013-3-20,72.3,58.0,47.6,47.0,41.4,29.0,90,60,21,30.24,30.04,10,1,15,0.24
2013-3-21,72.9,57.3,45.8,54.0,44.3,37.0,87,64,35,30.06,29.72,5,0,11,0.00
2013-3-22,84.4,70.1,60.1,67.0,61.6,54.0,89,76,51,29.77,29.65,4,0,8,0.00
2013-3-23,66.6,59.1,54.1,59.0,54.8,51.0,90,86,75,29.81,29.62,6,1,8,0.00
2013-3-24,58.7,51.8,41.1,56.0,39.3,30.0,89,65,39,30.14,29.65,16,4,25,0.00
2013-3-25,58.4,44.3,31.9,33.0,25.2,19.0,84,53,22,30.37,30.14,12,2,20,0.00
2013-3-26,59.4,43.8,29.0,32.0,24.0,19.0,83,51,23,30.49,30.33,17,2,17,0.00
2013-3-27,69.9,50.5,31.5,43.0,33.5,29.0,90,59,26,30.41,30.19,5,0,9,0.00
2013-3-28,71.7,60.7,52.5,55.0,49.8,43.0,81,68,51,30.31,30.18,3,0,6,0.00
2013-3-29,78.2,64.0,55.4,60.0,56.4,52.0,90,78,49,30.25,30.13,4,0,8,0.00
2013-3-30,79.1,67.3,58.3,66.0,60.1,56.0,91,79,50,30.16,29.95,4,0,13,0.42
2013-3-31,73.9,64.4,58.2,66.0,60.8,56.0,91,88,74,30.02,29.88,8,0,20,0.74
2013-4-1,81.3,66.1,54.6,65.0,56.8,52.0,91,75,43,30.09,29.96,4,0,7,0.00
2013-4-2,77.7,64.3,55.1,65.0,58.7,52.0,90,83,56,30.06,29.92,0,0,7,0.53
2013-4-3,62.8,50.8,45.5,60.0,47.7,43.0,90,89,87,30.10,29.84,8,1,22,0.70
2013-4-4,49.2,46.8,44.0,44.0,42.7,41.0,91,85,78,30.16,30.04,8,2,13,0.00
2013-4-5,73.3,56.3,40.4,53.0,45.1,38.0,91,70,39,30.24,30.09,3,0,6,0.00
2013-4-6,77.2,63.1,45.1,57.0,52.3,42.0,90,71,46,30.11,29.94,4,0,11,0.00
2013-4-7,80.3,69.8,58.8,62.0,59.2,56.0,90,70,52,30.01,29.85,4,0,8,0.00
2013-4-8,82.0,71.9,65.4,66.0,63.0,61.0,89,75,55,29.90,29.79,5,1,10,0.00
2013-4-9,85.1,73.6,67.1,70.0,66.4,63.0,87,79,54,29.84,29.75,9,1,13,0.00
2013-4-10,80.1,67.4,46.3,72.0,62.8,44.0,90,85,73,29.89,29.72,6,1,16,0.75
2013-4-11,67.9,50.7,41.3,52.0,43.2,39.0,91,78,39,29.91,29.78,7,2,17,0.43
2013-4-12,77.8,55.3,41.0,55.0,44.9,38.0,90,73,29,30.03,29.88,2,0,7,0.00
2013-4-13,81.6,64.1,45.5,57.0,49.6,42.0,90,65,26,30.02,29.82,2,0,8,0.00
2013-4-14,83.8,65.8,50.7,65.0,57.1,48.0,90,76,46,29.82,29.65,4,0,6,0.00
2013-4-15,87.9,75.2,65.2,72.0,66.8,62.0,89,76,53,29.87,29.74,6,0,9,0.00
2013-4-16,86.3,76.6,71.2,74.0,70.2,68.0,89,81,60,29.98,29.85,5,0,10,0.01
2013-4-17,85.5,76.7,71.2,73.0,70.6,68.0,89,81,64,29.98,29.79,8,1,14,0.02
2013-4-18,77.8,64.7,48.6,71.0,60.1,45.0,89,85,78,30.07,29.71,14,2,18,0.67
2013-4-19,62.6,50.3,40.2,45.0,36.0,30.0,89,62,33,30.23,30.07,18,3,19,0.00
2013-4-20,73.3,54.6,36.5,49.0,39.7,34.0,90,64,29,30.25,30.08,8,0,10,0.00
2013-4-21,76.0,58.8,42.9,52.0,46.2,40.0,89,68,35,30.21,30.09,2,0,9,0.00
2013-4-22,80.8,63.0,45.2,58.0,50.6,42.0,89,68,37,30.15,29.94,3,0,7,0.00
2013-4-23,82.3,70.2,59.5,67.0,62.5,56.0,88,77,57,30.03,29.89,3,0,8,0.00
2013-4-24,68.0,55.5,45.8,61.0,46.2,40.0,85,72,48,30.24,29.99,10,3,20,0.02
2013-4-25,75.1,61.6,53.0,51.0,46.7,41.0,83,61,33,30.34,30.22,6,1,10,0.00
2013-4-26,80.1,69.3,57.5,68.0,59.4,47.0,85,71,61,30.24,30.06,5,0,7,0.00
2013-4-27,85.9,72.9,66.4,70.0,66.3,63.0,89,81,55,30.13,29.96,3,0,8,0.02
2013-4-28,86.8,72.9,63.4,65.0,61.6,59.0,88,70,41,30.02,29.87,5,0,8,0.00
2013-4-29,85.5,70.0,56.3,68.0,61.6,53.0,88,76,49,29.96,29.83,4,0,7,0.00
2013-4-30,83.6,69.0,58.2,69.0,62.4,54.0,88,80,56,29.88,29.76,3,0,9,0.90
2013-5-1,81.0,71.0,64.8,71.0,64.9,61.0,88,81,62,29.91,29.83,4,0,8,0.01
2013-5-2,75.3,64.3,47.9,65.0,59.3,44.0,89,84,69,30.17,29.91,15,3,19,0.00
2013-5-3,64.2,51.3,42.7,44.0,38.5,31.0,89,66,30,30.17,30.03,14,3,21,0.01
2013-5-4,76.4,58.5,38.9,47.0,39.8,35.0,90,57,23,30.06,29.85,10,1,19,0.00
2013-5-5,67.8,54.3,43.5,47.0,42.0,38.0,88,66,40,30.10,29.96,12,2,16,0.00
2013-5-6,79.6,60.7,43.8,58.0,49.5,41.0,89,70,36,30.09,29.96,7,0,10,0.00
2013-5-7,85.0,69.1,54.9,62.0,55.7,52.0,89,67,33,30.07,29.96,3,0,7,0.00
2013-5-8,85.5,70.9,56.9,66.0,60.3,53.0,89,71,45,30.07,29.96,5,0,8,0.00
2013-5-9,78.5,70.7,66.6,71.0,66.0,63.0,88,85,75,30.04,29.88,5,0,6,0.95
2013-5-10,80.9,70.3,65.3,70.0,65.2,61.0,89,84,66,30.01,29.86,4,0,5,0.03
2013-5-11,82.6,70.5,61.4,68.0,61.7,57.0,89,75,45,30.12,29.94,6,1,10,0.02
2013-5-12,76.8,63.8,52.8,58.0,52.4,47.0,89,70,37,30.22,30.09,8,1,12,0.00
2013-5-13,84.0,65.1,46.7,59.0,51.0,44.0,89,66,29,30.29,30.17,2,0,7,0.00
2013-5-14,87.4,70.4,55.0,64.0,56.4,50.0,89,65,35,30.24,30.08,9,0,9,0.00
2013-5-15,74.4,68.0,65.1,67.0,63.5,56.0,89,85,68,30.14,29.93,4,0,7,0.21
2013-5-16,85.9,74.1,64.4,73.0,67.2,61.0,89,80,59,29.94,29.82,5,0,12,0.07
2013-5-17,89.3,78.7,71.8,76.0,71.3,68.0,88,79,61,29.96,29.85,3,0,9,0.00
2013-5-18,92.3,80.5,73.1,75.0,71.4,69.0,87,75,55,29.97,29.89,5,0,8,0.00
2013-5-19,91.1,80.8,73.1,73.0,70.4,68.0,87,72,47,29.92,29.81,5,1,10,0.00
2013-5-20,89.3,79.9,74.4,76.0,72.6,70.0,88,79,60,29.92,29.79,5,0,11,0.00
2013-5-21,90.0,79.8,65.4,74.0,70.8,62.0,88,75,55,29.93,29.70,7,1,17,1.07
2013-5-22,87.6,74.2,65.7,74.0,67.8,62.0,89,81,58,29.94,29.76,4,0,11,0.03
2013-5-23,91.3,77.7,67.9,77.0,70.4,64.0,89,79,58,30.06,29.93,2,0,5,0.00
2013-5-24,89.9,76.9,64.3,75.0,69.9,61.0,89,80,58,30.16,30.02,12,0,12,0.51
2013-5-25,89.1,74.8,68.3,76.0,68.6,65.0,89,82,60,30.18,30.09,3,0,10,0.37
2013-5-26,86.1,75.1,68.6,76.0,70.5,65.0,89,86,71,30.13,30.01,1,0,5,0.06
2013-5-27,89.8,79.0,70.5,74.0,69.8,67.0,89,75,51,30.06,29.92,5,0,10,0.00
2013-5-28,90.1,80.1,73.5,73.0,69.9,67.0,88,72,47,29.98,29.87,5,1,9,0.00
2013-5-29,86.6,79.0,73.4,73.0,71.5,70.0,88,78,60,29.93,29.83,6,1,9,0.00
2013-5-30,89.7,81.1,75.2,76.0,73.3,71.0,88,78,60,29.90,29.81,5,0,10,0.00
2013-5-31,94.1,82.8,77.3,78.0,75.1,73.0,88,78,56,29.91,29.82,7,0,9,0.00
2013-6-1,95.3,84.2,78.1,79.0,75.3,73.0,86,75,56,29.91,29.82,4,0,12,0.00
2013-6-2,82.6,72.1,65.6,74.0,67.4,62.0,89,85,64,29.96,29.88,10,1,13,2.56
2013-6-3,89.0,74.3,62.0,71.0,64.5,59.0,88,74,48,29.98,29.85,4,0,7,0.00
2013-6-4,92.3,78.8,66.4,74.0,69.5,63.0,89,75,51,29.95,29.82,1,0,5,0.00
2013-6-5,94.1,80.3,68.5,78.0,71.4,65.0,88,76,56,29.92,29.72,2,0,7,0.00
2013-6-6,78.3,72.5,67.5,74.0,68.9,64.0,89,88,82,29.91,29.75,5,0,19,0.69
2013-6-7,83.5,71.8,65.4,70.0,64.9,62.0,89,80,53,29.94,29.86,4,0,9,0.00
2013-6-8,89.1,75.7,63.6,73.0,66.0,60.0,89,74,49,29.94,29.84,0,0,0,0.00
2013-6-9,88.6,75.7,69.3,78.0,70.4,66.0,89,84,67,29.96,29.86,5,0,15,0.45
2013-6-10,93.6,80.0,68.6,78.0,71.9,65.0,89,78,55,30.00,29.93,0,0,1,0.00
2013-6-11,94.9,81.9,73.5,81.0,75.2,70.0,89,81,57,30.06,29.97,0,0,2,0.05
2013-6-12,94.1,83.0,73.5,78.0,74.7,70.0,89,77,54,30.08,29.96,2,0,7,0.00
2013-6-13,95.1,85.4,74.6,79.0,75.2,71.0,88,73,52,30.08,29.90,7,0,8,0.00
2013-6-14,96.2,84.7,75.3,82.0,69.3,-99.9,81,68,54,29.99,0.00,2,-26,11,0.00
2013-6-15,94.7,83.1,75.5,80.0,66.9,-99.9,80,67,59,30.00,29.89,3,-29,5,0.00
2013-6-16,93.6,82.6,74.6,78.0,66.1,52.0,78,58,42,30.04,29.91,0,0,1,0.01
2013-6-17,92.6,83.0,76.3,79.0,68.7,-99.9,82,68,57,30.01,29.88,0,-12,0,0.00
2013-6-18,90.8,80.3,73.3,78.0,72.5,65.0,84,77,62,29.97,29.90,5,0,10,0.03
2013-6-19,87.6,78.2,71.6,79.0,70.7,-99.9,87,80,69,30.01,29.94,0,-13,1,0.10
2013-6-20,94.5,83.8,75.5,78.0,70.4,-99.9,86,71,52,30.10,29.98,0,-13,0,0.00
2013-6-21,94.7,83.4,74.3,79.0,74.6,70.0,88,76,52,30.11,30.02,0,0,0,0.00
2013-6-22,94.3,81.9,72.2,78.0,69.8,-99.9,88,73,52,30.08,29.95,0,-10,0,0.00
2013-6-23,94.5,82.2,72.3,78.0,70.2,-99.9,88,71,50,30.04,29.94,2,-21,5,0.00
2013-6-24,93.6,82.7,75.5,82.0,75.3,72.0,88,79,53,30.08,29.98,4,0,7,0.11
2013-6-25,94.2,84.8,77.6,78.0,75.6,74.0,88,75,53,30.05,29.92,5,0,8,0.00
2013-6-26,96.4,85.3,76.7,77.0,75.1,73.0,88,73,50,30.03,29.90,4,0,11,0.00
2013-6-27,97.3,83.4,75.7,79.0,74.4,72.0,88,76,46,30.04,29.90,5,0,8,0.00
2013-6-28,97.1,85.3,76.9,78.0,74.9,72.0,88,72,51,29.96,29.77,4,0,11,0.00
2013-6-29,100.4,86.4,74.6,77.0,71.1,65.0,88,64,34,29.82,29.73,15,1,16,0.00
2013-6-30,94.0,79.8,64.8,67.0,61.0,55.0,89,58,27,29.86,29.78,10,1,19,0.00
2013-7-1,88.9,75.8,63.8,66.0,61.6,58.0,86,64,35,29.95,29.86,0,0,0,0.00
2013-7-2,93.0,76.1,62.8,71.0,63.9,59.0,89,69,33,30.02,29.94,1,0,10,0.00
2013-7-3,91.5,76.5,64.2,69.0,64.9,61.0,89,70,39,30.05,29.93,1,0,5,0.00
2013-7-4,94.0,78.5,65.6,70.0,65.5,60.0,88,67,34,30.01,29.91,1,0,1,0.00
2013-7-5,96.6,81.4,66.9,70.0,64.8,60.0,88,61,30,30.00,29.88,4,0,6,0.00
2013-7-6,97.2,80.4,72.3,75.0,70.1,65.0,88,73,35,29.98,29.87,0,0,0,0.00
2013-7-7,95.4,80.4,73.6,78.0,73.5,70.0,88,80,50,30.02,29.93,5,0,7,0.10
2013-7-8,93.6,80.0,74.6,78.0,72.9,69.0,86,79,52,30.14,30.02,4,0,10,0.22
2013-7-9,97.8,84.7,73.8,78.0,73.1,67.0,85,70,43,30.16,30.02,0,0,1,0.00
2013-7-10,98.4,85.9,75.0,77.0,73.5,68.0,83,68,40,30.09,29.93,4,0,7,0.00
2013-7-11,96.1,83.8,76.7,78.0,74.8,72.0,84,75,51,30.01,29.90,2,0,8,0.00
2013-7-12,100.4,84.5,73.8,77.0,72.2,68.0,84,69,38,29.98,29.85,5,0,10,0.00
2013-7-13,97.7,84.2,73.8,74.0,64.0,50.0,82,56,20,29.99,29.87,7,0,11,0.00
2013-7-14,86.6,78.8,72.6,74.0,69.7,67.0,84,74,59,29.98,29.88,0,0,0,0.01
2013-7-15,79.2,73.1,70.7,73.0,67.0,64.0,84,81,79,30.05,29.93,1,0,4,0.03
2013-7-24,95.2,83.6,77.0,78.0,74.4,73.0,87,75,48,30.01,29.87,6,0,14,0.00
2013-7-25,96.7,83.5,73.0,78.0,73.1,68.0,87,72,47,30.04,29.95,3,0,6,0.00
2013-7-26,95.2,85.3,77.0,77.0,74.1,71.0,87,71,45,30.04,29.87,4,0,9,0.00
2013-7-27,87.6,79.5,72.8,76.0,72.2,68.0,87,79,59,29.95,29.89,8,1,12,0.12
2013-7-28,94.9,80.7,67.8,76.0,70.6,63.0,87,73,48,29.99,29.90,4,0,8,0.00
2013-7-29,97.5,85.1,75.7,78.0,73.2,69.0,86,69,45,30.07,29.98,6,0,11,0.00
2013-7-30,97.5,85.3,75.7,76.0,72.2,68.0,85,67,39,30.14,30.00,5,0,9,0.00
2013-7-31,100.4,85.7,76.0,75.0,70.9,59.0,85,65,26,30.10,29.93,4,0,9,0.00
2013-8-1,101.7,86.2,77.6,77.0,74.3,72.0,85,70,40,30.03,29.89,4,0,9,0.00
2013-8-2,100.5,86.5,74.0,77.0,72.5,68.0,86,66,35,29.98,29.90,2,0,8,0.00
2013-8-3,99.0,86.8,76.8,76.0,73.6,71.0,84,67,41,30.05,29.96,4,0,7,0.00
2013-8-4,100.8,87.4,76.1,78.0,74.3,69.0,84,67,39,30.10,29.95,4,0,8,0.00
2013-8-5,101.3,87.4,77.4,77.0,73.8,68.0,84,66,35,30.05,29.89,5,0,12,0.00
2013-8-6,102.8,88.7,77.9,78.0,74.0,70.0,84,65,36,29.98,29.83,6,0,12,0.00
2013-8-7,102.7,88.4,79.2,77.0,69.4,-99.9,84,59,35,29.96,29.81,4,-24,9,0.00
2013-8-8,101.3,89.2,78.6,75.0,72.4,67.0,84,61,33,29.95,29.83,4,0,9,0.00
2013-8-9,101.5,87.8,79.0,77.0,67.4,-99.9,82,56,33,29.98,29.86,4,-30,10,0.00
2013-8-10,100.3,83.8,73.8,79.0,74.0,67.0,84,74,43,30.07,29.95,3,0,9,0.04
2013-8-11,98.2,81.7,71.3,78.0,71.0,63.0,84,71,43,30.09,29.98,4,0,8,0.02
2013-8-12,98.7,85.7,75.6,77.0,72.9,69.0,85,68,41,30.09,29.94,5,0,13,0.00
2013-8-13,101.5,87.3,77.6,76.0,73.1,66.0,85,66,33,30.04,29.88,10,0,12,0.00
2013-8-14,93.9,81.9,75.5,76.0,73.4,68.0,85,76,52,30.01,29.91,8,1,17,0.14
2013-8-15,93.5,79.5,69.4,72.0,66.0,61.0,84,66,37,30.05,29.92,4,0,9,0.00
2013-8-16,93.2,78.7,64.8,69.0,63.7,60.0,85,63,38,30.03,29.91,5,0,10,0.00
2013-8-17,92.0,76.4,65.1,65.0,59.5,-99.9,84,60,33,30.04,29.93,8,-10,14,0.00
2013-8-18,95.1,78.9,65.4,71.0,64.8,60.0,85,65,36,30.05,29.96,4,0,11,0.00
2013-8-19,96.9,81.1,67.3,69.0,63.8,58.0,85,60,28,30.07,29.93,9,0,10,0.00
2013-8-20,98.2,82.6,67.9,73.0,66.1,59.0,86,62,28,30.05,29.95,7,0,10,0.00
2013-8-21,98.3,83.5,70.8,75.0,68.8,65.0,85,64,36,30.11,29.97,4,0,10,0.00
2013-8-22,99.1,85.3,73.1,75.0,71.0,68.0,84,65,39,30.10,29.94,4,0,15,0.00
2013-8-23,100.2,85.6,71.8,75.0,70.0,66.0,85,62,35,30.03,29.88,5,0,11,0.00
2013-8-24,100.1,85.8,74.0,74.0,69.7,66.0,85,62,34,30.06,29.96,9,1,12,0.00
2013-8-25,97.7,83.9,73.4,73.0,70.3,68.0,85,66,39,30.14,30.04,7,1,15,0.00
2013-8-26,91.0,78.1,72.0,74.0,70.6,66.0,85,78,50,30.18,30.08,2,0,13,0.05
2013-8-27,94.9,80.1,70.4,74.0,68.2,63.0,85,69,43,30.14,30.02,6,0,7,0.00
2013-8-28,99.9,87.3,73.4,72.0,69.3,64.0,85,58,31,30.09,29.95,6,0,13,0.00
2013-8-29,102.0,86.8,75.6,73.0,68.0,63.0,83,57,29,30.06,29.93,6,0,11,0.00
2013-8-30,101.1,86.9,76.1,76.0,71.3,59.0,85,63,25,30.02,29.87,5,0,10,0.00
2013-8-31,100.3,87.6,75.6,74.0,70.9,67.0,85,60,34,29.95,29.81,5,0,10,0.00
2013-9-1,100.1,86.0,75.6,75.0,70.3,64.0,85,62,30,29.95,29.81,5,0,12,0.00
2013-9-2,101.4,84.3,75.6,76.0,71.0,66.0,86,67,32,29.99,29.84,8,0,13,0.00
2013-9-3,98.6,82.0,74.7,79.0,72.3,69.0,86,74,40,29.97,29.87,5,0,16,0.04
2013-9-4,98.7,79.1,71.6,78.0,71.1,66.0,86,78,43,30.05,29.94,1,0,8,0.05
2013-9-5,100.0,83.0,70.6,77.0,68.9,63.0,85,65,34,30.11,29.97,6,0,11,0.00
2013-9-6,97.7,82.6,70.0,76.0,70.3,65.0,86,69,40,30.09,29.95,2,0,7,0.00
2013-9-7,95.6,79.1,70.1,79.0,71.4,66.0,87,78,45,30.06,29.95,4,0,9,0.15
2013-9-8,95.9,80.5,68.1,76.0,68.1,62.0,87,69,39,30.02,29.89,5,0,9,0.00
2013-9-9,96.2,81.7,69.3,75.0,68.0,60.0,87,67,30,30.03,29.94,6,0,7,0.00
2013-9-10,92.1,80.9,69.5,74.0,68.7,65.0,87,69,42,30.11,30.00,1,0,10,0.00
2013-9-11,95.3,80.1,71.0,78.0,71.6,67.0,88,77,44,30.12,30.00,2,0,9,0.01
2013-9-12,95.8,80.2,69.4,74.0,68.2,64.0,87,69,35,30.07,29.90,2,0,8,0.00
2013-9-13,99.7,83.1,69.6,72.0,67.8,63.0,87,63,32,29.95,29.79,8,0,11,0.00
2013-9-14,94.9,82.6,72.1,70.0,65.5,61.0,80,58,38,29.97,29.86,11,0,11,0.00
2013-9-15,97.1,82.6,69.3,73.0,66.5,61.0,79,60,36,30.04,29.94,4,0,8,0.00
2013-9-16,97.8,83.5,71.3,73.0,68.5,60.0,87,64,29,30.07,29.95,5,0,10,0.00
2013-9-17,95.3,82.3,71.3,74.0,69.0,66.0,87,67,39,30.09,29.93,7,0,10,0.00
2013-9-18,97.1,82.8,71.3,74.0,69.5,65.0,87,67,37,30.02,29.90,4,0,10,0.00
2013-9-19,95.6,81.9,74.1,75.0,72.6,70.0,87,74,44,30.00,29.87,4,0,11,0.00
2013-9-20,78.4,72.5,69.8,74.0,64.0,-99.9,87,79,76,29.93,29.77,16,-23,21,3.81
2013-9-21,82.7,72.1,63.4,68.0,63.7,59.0,86,75,56,29.87,29.79,9,1,17,3.83
2013-9-22,85.0,68.1,55.7,59.0,55.0,50.0,87,68,31,29.89,29.77,6,0,15,0.00
2013-9-23,90.1,71.9,55.9,68.0,60.8,52.0,87,71,42,29.86,29.75,3,0,9,0.00
2013-9-24,93.3,78.8,67.2,72.0,66.4,59.0,87,69,34,29.87,29.79,6,0,13,0.00
2013-9-25,94.1,73.8,59.0,64.0,58.5,49.0,87,65,22,29.88,29.78,5,0,10,0.00
2013-9-26,93.3,73.7,57.8,69.0,60.6,53.0,87,68,30,29.94,29.83,0,0,7,0.00
2013-9-27,91.5,75.8,62.3,73.0,65.9,57.0,87,73,44,29.99,29.90,3,0,12,0.00
2013-9-28,88.7,79.1,70.5,74.0,71.0,66.0,87,77,57,30.02,29.91,5,0,12,0.00
2013-9-29,76.6,73.8,72.2,72.0,67.5,65.0,86,81,77,30.01,29.91,0,0,5,2.02
2013-9-30,85.5,74.9,71.1,75.0,68.0,64.0,87,79,65,29.92,29.83,2,0,7,0.01
2013-10-1,89.5,76.7,71.5,76.0,70.1,67.0,87,80,57,29.98,29.89,4,0,14,0.14
2013-10-2,88.3,77.4,71.9,75.0,69.4,65.0,87,77,56,30.03,29.91,1,0,7,0.01
2013-10-3,89.8,78.5,72.0,75.0,71.0,67.0,87,79,56,29.98,29.89,1,0,9,0.00
2013-10-4,89.8,78.4,70.0,76.0,71.4,64.0,87,79,61,29.97,29.89,2,0,8,0.00
2013-10-5,90.7,78.5,65.6,77.0,71.6,59.0,88,80,60,30.00,29.84,9,1,15,0.10
2013-10-6,77.5,64.2,55.6,58.0,48.9,40.0,80,61,28,30.09,29.95,9,1,16,0.00
2013-10-7,80.7,61.2,47.7,54.0,47.2,41.0,89,65,26,30.13,30.03,5,0,13,0.00
2013-10-8,78.5,61.7,49.0,59.0,52.5,46.0,89,75,44,30.12,30.01,5,0,8,0.00
2013-10-9,80.7,63.7,50.4,64.0,54.8,47.0,89,75,45,30.11,30.01,2,0,6,0.00
2013-10-10,83.8,66.9,52.3,66.0,58.6,48.0,88,76,50,30.10,29.96,4,0,7,0.00
2013-10-11,87.7,73.9,62.2,71.0,66.4,58.0,88,78,57,30.00,29.90,3,0,8,0.00
2013-10-12,88.6,75.6,69.5,77.0,70.0,63.0,88,83,67,30.11,29.93,3,0,14,0.16
2013-10-13,78.7,71.7,67.6,71.0,66.1,62.0,88,82,74,30.19,30.05,3,0,11,0.00
2013-10-14,83.7,74.3,69.9,72.0,68.5,66.0,88,82,62,30.13,29.99,2,0,6,0.00
2013-10-15,84.6,75.5,70.1,75.0,68.8,64.0,87,80,67,30.01,29.89,1,0,7,0.01
2013-10-16,72.5,67.5,62.0,67.0,62.1,57.0,87,83,78,30.02,29.89,5,0,8,0.13
2013-10-17,74.3,62.3,51.7,57.0,53.7,48.0,89,75,43,30.09,29.99,9,1,14,0.00
2013-10-18,71.7,59.4,50.8,61.0,53.6,47.0,89,82,66,30.06,29.93,4,0,8,0.01
2013-10-19,67.5,57.5,45.3,55.0,49.2,42.0,89,76,42,30.13,29.97,12,1,15,0.00
2013-10-20,72.5,54.2,40.4,56.0,46.0,37.0,89,76,43,30.12,29.97,2,0,6,0.00
2013-10-21,79.0,62.1,49.2,67.0,56.1,46.0,88,81,63,30.03,29.93,2,0,7,0.00
2013-10-22,71.9,61.3,49.8,58.0,54.4,47.0,89,79,47,30.10,30.00,8,1,13,0.00
2013-10-23,79.6,59.8,45.6,60.0,50.3,42.0,89,74,38,30.14,30.07,0,0,4,0.00
2013-10-24,82.7,63.6,48.9,61.0,52.2,45.0,89,71,34,30.24,30.11,6,0,11,0.00
2013-10-25,70.8,58.8,52.1,54.0,49.0,44.0,89,72,46,30.41,30.24,6,0,10,0.00
2013-10-26,78.2,61.3,45.0,62.0,53.2,42.0,90,76,53,30.30,30.09,5,0,9,0.00
2013-10-27,75.8,65.0,59.0,64.0,59.5,55.0,89,82,60,30.17,30.02,2,0,11,0.52
2013-10-28,79.3,66.3,56.5,68.0,60.9,52.0,89,83,67,30.16,30.04,1,0,5,0.01
2013-10-29,81.7,71.9,65.4,71.0,65.8,61.0,89,81,65,30.16,30.07,5,0,9,0.00
2013-10-30,73.1,69.4,68.1,67.0,65.2,63.0,89,86,81,30.11,29.87,2,0,9,1.21
2013-10-31,73.7,73.5,73.3,68.0,67.1,67.0,81,81,80,29.86,29.77,2,0,9,2.23
2013-11-1,76.0,61.8,47.1,62.0,53.7,43.0,88,76,51,30.00,29.84,3,0,14,0.06
2013-11-2,68.9,57.2,45.0,55.0,45.5,35.0,89,70,30,30.24,29.98,10,1,22,0.01
2013-11-3,66.3,51.7,40.4,51.0,43.7,37.0,89,77,43,30.26,30.11,3,0,11,0.00
2013-11-4,73.0,61.0,49.2,61.0,54.9,46.0,89,81,65,30.16,30.06,2,0,6,0.00
2013-11-5,76.4,69.1,63.4,68.0,64.3,59.0,89,84,74,30.11,30.00,5,0,8,0.00
2013-11-6,74.7,63.9,46.9,70.0,60.3,43.0,89,88,83,30.29,30.02,9,1,20,0.16
2013-11-7,62.7,49.6,41.4,45.0,41.0,38.0,90,75,42,30.44,30.29,9,1,15,0.00
2013-11-8,65.4,51.4,41.8,51.0,45.0,39.0,90,80,48,30.39,30.20,1,0,5,0.00
2013-11-9,59.3,53.9,50.3,54.0,49.8,47.0,90,86,72,30.25,30.18,3,0,3,0.00
2013-11-10,71.0,55.8,45.9,55.0,49.2,43.0,90,80,52,30.33,30.23,4,0,11,0.00
2013-11-11,72.1,55.7,43.8,58.0,49.3,41.0,89,80,54,30.29,30.17,0,0,4,0.00
2013-11-12,62.4,50.3,39.3,57.0,45.0,31.0,88,82,69,30.61,30.25,9,1,18,0.00
2013-11-13,53.7,38.9,28.6,33.0,28.5,25.0,90,70,35,30.64,30.42,8,1,13,0.00
2013-11-14,59.0,42.9,28.8,44.0,34.5,26.0,90,76,39,30.41,30.11,4,0,6,0.00
2013-11-15,73.2,58.4,43.4,63.0,53.9,40.0,90,85,69,30.11,29.93,1,0,5,0.03
2013-11-16,75.1,66.0,53.0,71.0,61.5,49.0,89,85,80,29.97,29.81,1,0,8,0.01
2013-11-17,82.1,73.3,65.7,74.0,68.0,61.0,89,83,73,29.96,29.81,3,0,13,0.15
2013-11-18,75.8,64.6,53.6,63.0,52.0,42.0,89,67,30,30.17,29.96,2,0,11,0.01
2013-11-19,66.8,56.0,46.3,47.0,42.3,38.0,88,62,38,30.20,30.07,5,0,11,0.00
2013-11-20,69.9,53.8,40.7,52.0,43.9,38.0,89,72,38,30.10,29.98,3,0,6,0.00
2013-11-21,73.4,66.9,54.2,68.0,62.6,50.0,90,86,77,30.11,30.02,4,0,9,0.00
2013-11-22,70.2,57.1,46.5,67.0,53.9,44.0,90,89,86,30.30,30.07,7,1,15,0.71
2013-11-23,49.7,45.5,41.7,46.0,42.2,34.0,91,88,73,30.46,30.27,8,2,17,0.17
2013-11-24,46.0,40.7,36.1,36.0,29.8,24.0,90,66,48,30.50,30.33,10,2,18,0.11
2013-11-25,39.2,37.5,36.1,37.0,34.9,34.0,91,90,89,30.33,30.04,8,1,14,2.14
2013-11-26,41.5,39.1,37.4,39.0,36.5,35.0,91,90,90,30.24,30.02,8,2,18,0.44
2013-11-27,47.5,36.2,28.5,34.0,29.4,26.0,91,79,44,30.43,30.25,10,1,14,0.01
2013-11-28,51.4,36.0,27.6,37.0,29.9,25.0,91,80,49,30.51,30.39,3,0,7,0.00
2013-11-29,59.1,39.2,27.1,43.0,31.6,25.0,91,78,35,30.56,30.41,4,0,5,0.01
2013-11-30,61.4,45.4,31.1,50.0,40.8,29.0,91,84,64,30.44,30.22,1,0,2,0.00
2013-12-1,64.9,57.5,51.4,58.0,53.0,48.0,90,85,75,30.26,29.97,0,0,6,0.00
2013-12-2,73.6,60.9,51.4,61.0,56.3,48.0,90,85,63,29.96,29.68,2,0,9,0.00
2013-12-3,79.5,65.0,50.9,65.0,58.0,48.0,89,79,52,29.71,29.60,2,0,11,0.00
2013-12-4,77.2,70.1,65.5,68.0,65.3,62.0,89,85,71,29.83,29.71,2,0,9,0.00
2013-12-5,69.4,54.1,39.7,66.0,49.7,37.0,90,85,76,30.06,29.82,13,2,16,0.00
2013-12-6,41.2,38.6,34.5,38.0,35.8,31.0,90,89,87,30.39,30.00,12,2,17,0.11
2013-12-7,35.3,34.0,32.5,31.0,29.7,29.0,88,84,81,30.44,30.29,10,2,17,0.00
2013-12-8,42.0,38.2,33.8,39.0,34.6,30.0,90,87,80,30.27,30.08,2,0,5,0.00
2013-12-9,41.2,39.7,36.8,40.0,36.8,34.0,95,89,88,30.32,30.10,5,1,11,0.11
2013-12-10,43.3,35.0,29.4,34.0,30.2,27.0,90,83,64,30.47,30.31,10,1,16,0.00
2013-12-11,54.2,38.4,28.2,38.0,32.5,26.0,90,81,50,30.53,30.36,7,0,9,0.00
2013-12-12,53.1,38.7,30.6,34.0,31.2,28.0,90,77,42,30.59,30.38,7,0,10,0.00
2013-12-13,53.7,43.3,34.4,49.0,39.1,31.0,90,85,74,30.38,29.87,3,0,6,0.86
2013-12-14,54.2,48.6,38.8,50.0,43.4,32.0,89,82,72,30.27,29.84,13,3,22,0.01
2013-12-15,54.3,38.3,28.7,38.0,31.3,26.0,90,78,44,30.38,30.27,5,0,12,0.00
2013-12-16,62.1,41.8,28.7,48.0,34.2,26.0,94,77,42,30.35,30.23,2,0,6,0.00
2013-12-17,67.9,46.9,32.3,49.0,38.7,29.0,89,76,40,30.34,30.24,5,0,8,0.00
2013-12-18,67.2,43.9,33.6,53.0,37.4,30.0,89,80,46,30.34,30.22,0,0,5,0.00
2013-12-19,71.6,60.3,49.4,62.0,55.3,46.0,89,84,70,30.13,29.91,4,0,8,0.00
2013-12-20,75.8,69.8,64.9,68.0,65.4,61.0,89,86,77,29.92,29.77,2,0,10,0.00
2013-12-21,71.1,69.9,68.3,67.0,65.1,63.0,89,85,81,29.77,29.51,9,1,15,1.68
2013-12-22,55.8,46.6,32.8,50.0,37.5,-99.9,89,79,76,30.33,0.00,13,-9,21,0.01
2013-12-23,50.2,35.9,31.2,34.0,29.9,28.0,90,80,45,30.54,30.34,7,1,12,0.00
2013-12-24,47.9,33.6,27.5,38.0,28.8,24.0,89,83,58,30.57,30.50,2,0,7,0.00
2013-12-26,60.3,46.8,36.4,43.0,39.2,34.0,94,77,47,30.43,30.30,3,0,7,0.00
2013-12-27,56.9,45.3,37.3,43.0,35.8,29.0,89,73,34,30.47,30.33,2,0,6,0.00
2013-12-28,55.3,45.7,40.2,41.0,38.7,36.0,89,78,49,30.33,30.02,2,0,5,0.00
2013-12-29,60.3,47.0,34.2,49.0,38.9,31.0,91,76,43,30.18,30.00,4,0,13,0.00
2013-12-30,44.6,39.4,35.6,37.0,32.5,30.0,87,76,70,30.40,30.16,9,1,11,0.00
2013-12-31,46.5,38.1,34.3,35.0,33.4,31.0,89,83,64,30.46,30.29,3,0,7,0.00
2014-1-1,60.8,48.5,34.5,54.0,44.1,31.0,89,85,75,30.28,30.02,1,0,6,0.00
2014-1-2,56.9,41.8,30.1,54.0,29.8,22.0,89,64,36,30.45,30.05,16,3,22,0.00